Flag for Austria Weather past 2 weeks in Hallein, Salzburg, Austria

Now
37 °F

Passing clouds.


Feels Like: 33 °F
Forecast: 27 / 49 °F
Wind: 6 mph from Southeast

Location: Salzburg-Flughafen

Current Time: Apr 18, 2015 at 11:24:34 PM

Latest Report: Apr 18, 2015 at 10:50 PM


Visibility: N/A

Pressure: 30.21 "Hg

Humidity: 87%

Dew point: 34 °F

Location of HalleinLocation

Historic Weather in Hallein — Graph

°F

Hallein temperature yesterday

Maximum temperature yesterday: 57 °F (at 12:20 AM)
Minimum temperature yesterday: 48 °F (at 11:20 PM)
Average temperature yesterday: 53 °F

Past Weeks' High & Low Weather Summary

 TemperatureHumidityPressure
High73 °F (Apr 15, 3:50 PM)100% (Apr 5, 10:20 PM)30.60 "Hg (Apr 5, 10:20 PM)
Low32 °F (Apr 5, 10:20 PM)17% (Apr 15, 4:20 PM)29.86 "Hg (Apr 4, 2:20 PM)
Average49 °F65%30.22 "Hg
* Reported Apr 3 9:20 PM — Apr 18 9:50 PM, Hallein, Weather by CustomWeather, © 2015

Note: Actual official high and low records may vary slightly from our data, if they occured in-between our weather recording intervals... More about our weather records

Advertising

Hallein weather history for previous 24 hours

 ConditionsComfort  
Time TempWeatherWind HumidityBarometerVisibility
9:50 PM
Sat, Apr 18
41 °FPassing clouds.6 mph70%30.21 "HgN/A
9:20 PM41 °FPassing clouds.3 mph76%30.21 "HgN/A
8:50 PM41 °FPassing clouds.6 mph76%30.21 "HgN/A
8:20 PM45 °FScattered clouds.2 mph61%30.21 "HgN/A
7:50 PM45 °FScattered clouds.2 mph61%30.21 "HgN/A
7:20 PM46 °FScattered clouds.1 mph50%30.18 "HgN/A
6:50 PM46 °FPartly sunny.3 mph53%30.18 "HgN/A
6:20 PM46 °FPartly sunny.10 mph53%30.18 "HgN/A
5:50 PM48 °FPartly sunny.6 mph46%30.18 "HgN/A
5:20 PM48 °FPartly sunny.8 mph46%30.18 "HgN/A
4:50 PM50 °FPartly sunny.8 mph47%30.18 "HgN/A
4:20 PM50 °FPartly sunny.13 mph47%30.18 "HgN/A
3:50 PM48 °FPartly sunny.8 mph50%30.18 "HgN/A
3:20 PM48 °FBroken clouds.7 mph43%30.18 "HgN/A
2:50 PM48 °FBroken clouds.6 mph46%30.18 "HgN/A
2:20 PM46 °FBroken clouds.6 mph57%30.21 "HgN/A
1:50 PM46 °FBroken clouds.5 mph53%30.18 "HgN/A
1:20 PM46 °FBroken clouds.13 mph57%30.18 "HgN/A
12:50 PM46 °FScattered showers. Partly sunny.6 mph62%30.18 "HgN/A
12:20 PM46 °FPartly sunny.2 mph62%30.18 "HgN/A
11:50 AM46 °FPartly sunny.5 mph62%30.18 "HgN/A
11:20 AM45 °FPartly sunny.6 mph66%30.18 "HgN/A
10:50 AM43 °FBroken clouds.7 mph76%30.18 "HgN/A
10:20 AM43 °FBroken clouds.7 mph76%30.15 "HgN/A
9:50 AM41 °FBroken clouds.7 mph81%30.15 "HgN/A
9:20 AM41 °FBroken clouds.8 mph87%30.15 "HgN/A
8:50 AM41 °FLight rain. Broken clouds.7 mph87%30.15 "HgN/A
8:20 AM41 °FLight rain. Broken clouds.9 mph87%30.12 "HgN/A
7:50 AM41 °FBroken clouds.7 mph87%30.12 "HgN/A
7:20 AM41 °FBroken clouds.7 mph87%30.12 "HgN/A
6:50 AM41 °FLight rain. Passing clouds.5 mph87%30.09 "HgN/A
6:20 AM41 °FLight rain. Passing clouds.3 mph87%30.09 "HgN/A
5:50 AM41 °FLight rain. Passing clouds.5 mph87%30.09 "HgN/A
5:20 AM43 °FPassing clouds.7 mph87%30.09 "HgN/A
4:50 AM43 °FSprinkles. Overcast.8 mph87%30.09 "HgN/A
4:20 AM43 °FPassing clouds.10 mph87%30.07 "HgN/A
3:50 AM43 °FSprinkles. Passing clouds.8 mph87%30.07 "HgN/A
3:20 AM43 °FSprinkles. Passing clouds.12 mph93%30.07 "HgN/A
2:50 AM45 °FPartly cloudy.9 mph93%30.04 "HgN/A
2:20 AM45 °FLight rain. Partly cloudy.9 mph93%30.04 "HgN/A
1:50 AM46 °FPassing clouds.7 mph93%30.04 "Hg4 mi
1:20 AM46 °FRain. Passing clouds.8 mph93%30.04 "Hg4 mi
12:50 AM46 °FRain. Passing clouds.8 mph100%30.04 "Hg4 mi
12:20 AM46 °FRain. Passing clouds.7 mph100%30.04 "Hg3 mi
11:50 PM
Fri, Apr 17
48 °FHeavy rain. Passing clouds.7 mph94%30.01 "Hg4 mi
11:20 PM48 °FHeavy rain. Passing clouds.6 mph94%30.01 "Hg3 mi
Weather by CustomWeather, © 2015

See weather overviewHow to use our weather pages